Location: Ciserano
(45.5833°N, 9.6000°E)
Time: 06:36:44
(UTC+00:00)

Cosmos 1295 Rocket - Pass Details

Date: 23 April 2021
Orbit: 944 x 993 km, 82.9° (Epoch: 13 May)

Event Time Altitude Azimuth Distance (km) Brightness Sun altitude
Rises 01:08:15 0° 338° (NNW) 3,685 8.0 -26.9°
Reaches altitude 10° 01:11:27 10° 322° (NW) 2,741 7.1 -26.7°
Enters shadow 01:15:15 20° 285° (WNW) 2,133 6.1 -26.3°
